Find Starlink 31899

NORAD ID: 59850 Int'l Des: 2024-097 Owner: SPXS Country: US Constellation: starlink operational
LEOCIRCULAR

Current View

Loading 3D Globe...

About Starlink 31899

Starlink 31899 (NORAD 59850) is a starlink constellation satellite (v2 mini) launched May 23, 2024 by SPXS of US. It operates in LEO, CIRCULAR orbit with a mass of 730.00 kg.

About Starlink 31899

Description loading...

Upcoming Passes

Passes for default location (London). Set your location on the main map for personalized predictions.

Altitude History

Loading altitude history...

Two-Line Element Set

1 59850U 24097R 26170.40514598 .00000835 00000-0 39853-4 0 9999
2 59850 43.0022 59.8592 0000916 274.9924 85.0824 15.27582018117477
Epoch: Jun 19, 2026 • Age: 13 hours

Current Status

Altitude 485.1 km
Velocity 7.63 km/s
Sub-Earth Point 35.42°N, 139.95°W
Launch Date May 23, 2024
Age 2 years
Type internet

Technical Details

Classification Payload
Mass 730.00 kg
Dry Mass 700.00 kg
Total Mass 730.00 kg
Length 0.30 m
Diameter 4.10 m
Span 29.00 m
Shape Box + pan
Manufacturer SPXS
Bus Type Starlink V2M
Phase Status In Orbit
Owner/State SPXS/US

Most Searched